[[{"header":{"parameterUnit":"m.s-1","parameterCategory":1,"la1":30.2991,"la2":30.254,"lo1":-89.0895,"lo2":-89.0444,"dy":0.0017,"dx":0.0017,"nx":28,"ny":28,"refTime":"2024-12-20T03:00:00:Z","depth":0,"parameterNumber":2,"parameterNumberName":"U-component_of_WINDS"},"data":[0,0,0,0,0,0,0,0,0,0,0,0,0,0,0,0,0,0,0,0,0,0,0,0,0,0,0,0,0,0,0,0,0,0,0,0,0,0,0,0,0,0,0,0,0,0,0,0,0,0,0,0,0,0,0,0,0,0,0.0107,0.0107,0,0.0088,0.0088,0.0088,0.0087,0.0087,0.0088,0.0088,0.0068,0.0067,0.0067,0,0,0,0,0,0,0,0,0,0,0,0,0,0.0144,0.0144,0.0107,0.0107,0.0107,0.0088,0.0088,0.0087,0.0087,0.0087,0.0088,0.0088,0.0068,0.0068,0.0067,0,0,0,0,0,0,0,0,0,0,0,0,0,0.0127,0.0143,0.0107,0.0104,0.0104,0.0088,0.0088,0.0087,0.0087,0.0087,0.0088,0.0088,0.0069,0.0068,0.0067,0.0052,0,0,0.0063,0.0063,0,0,0,0,0,0,0,0,0.0128,0.0126,0.0105,0.0104,0.0104,0.009,0.0094,0.0076,0.0087,0.0093,0.0088,0.0088,0.0075,0.0074,0.0069,0.0051,0.0051,0.0063,0.0062,0.0062,0.0062,0,0,0,0,0,0,0,0.0129,0.0126,0.01,0.0105,0.0104,0.0104,0.0102,0.009,0.0083,0.0093,0.0093,0.0091,0.0075,0.007,0.0069,0.005,0.0063,0.0062,0.0061,0.0061,0.002,0.002,0,0,0,0,0,0,0.0131,0.0127,0.01,0.0099,0.0117,0.0103,0.0101,0.0094,0.0083,0.0081,0.009,0.0091,0.0072,0.007,0.0068,0.0051,0.0062,0.0061,0.006,0.0021,0.002,0.002,0,0,0,0,0,0,0.0132,0.0128,0.0101,0.0113,0.011,0.0102,0.0095,0.0094,0.0089,0.0081,0.0079,0.0087,0.0072,0.007,0.0056,0.005,0.006,0.0059,0.0021,0.0021,0.002,0.0016,0,0,0,0,0,0,0.0133,0.0129,0.0123,0.0113,0.0109,0.0089,0.0094,0.0093,0.0087,0.0087,0.0077,0.0076,0.0072,0.0058,0.0055,0.0049,0.0058,0.0022,0.0021,0.002,0.0016,0.0015,0.0014,0,0,0,0,0,0.0134,0.0122,0.0123,0.0119,0.0102,0.0089,0.0087,0.0083,0.0087,0.0081,0.0076,0.0076,0.0051,0.0057,0.0053,0.0046,0.0022,0.0021,0.002,0.0017,0.0015,0.0014,0,0,0,0,0,0,0.0131,0.0121,0.0121,0.0106,0.0098,0.0089,0.0081,0.0081,0.0072,0.0073,0.0069,0.0067,0.0054,0.0049,0.0055,0.0032,0.0037,0.0036,0.0036,0.0034,0.0033,0.0034,0.0057,0,0,0,0,0,0.0129,0.012,0.0111,0.0098,0.0095,0.0089,0.0083,0.0081,0.0073,0.007,0.0064,0.0056,0.0046,0.004,0.0031,0.0016,0.0014,0.001,0.0009,0.0008,0.0006,-0.0002,-0.0004,0.0017,0.0017,0.0017,0,0,0.0124,0.0117,0.0111,0.0098,0.0092,0.0082,0.0086,0.0075,0.0068,0.0068,0.0055,0.005,0.0042,0.0027,0.0021,0.0023,-0.0,0.0006,0.0006,0.0005,-0.0003,-0.0005,-0.0007,0.0016,0.0016,0.0016,0,0,0.011,0.0104,0.0093,0.0087,0.0078,0.0074,0.0071,0.0062,0.0059,0.0046,0.0046,0.0038,0.0021,0.0015,0.001,-0.0005,-0.0006,-0.0008,-0.0015,-0.0023,-0.0025,-0.0026,-0.0032,-0.0034,-0.001,-0.001,-0.001,0,0.0105,0.009,0.0087,0.0077,0.0071,0.0071,0.006,0.0054,0.0042,0.0038,0.0041,0.0021,0.0015,-0.0,-0.0004,-0.0008,-0.0011,-0.0008,-0.0024,-0.0026,-0.0027,-0.0033,-0.0035,-0.001,-0.001,-0.001,-0.001,0,0.0084,0.0074,0.0066,0.0055,0.0048,0.0038,0.0033,0.0027,0.0026,0.0022,0.0009,0.0002,-0.0008,-0.0012,-0.0013,-0.0027,-0.0026,-0.0023,-0.0019,-0.0029,-0.0035,-0.0037,-0.001,-0.001,-0.001,-0.001,0,0,0.0066,0.0055,0.0052,0.0047,0.0037,0.0029,0.0019,0.0009,0.0004,-0.0004,-0.0013,-0.0026,-0.0024,-0.003,-0.0032,-0.0038,-0.005,-0.0035,-0.0036,-0.0038,-0.0066,-0.0069,-0.0071,-0.005,-0.005,-0.005,-0.0066,0,0.0051,0.0032,0.0029,0.0013,0.0003,0.0004,-0.0005,-0.0012,-0.0015,-0.0023,-0.0027,-0.0037,-0.0033,-0.0036,-0.0043,-0.0047,-0.0056,-0.0046,-0.0058,-0.0059,-0.0057,-0.0074,-0.0076,-0.0091,-0.0068,-0.0068,-0.0068,0,0.003,0.0021,0.0004,-0.0004,-0.0008,-0.0016,-0.0025,-0.0033,-0.004,-0.0042,-0.0048,-0.0049,-0.0059,-0.0053,-0.0068,-0.0061,-0.0066,-0.0069,-0.0069,-0.0071,-0.0065,-0.0077,-0.0095,-0.0098,-0.0072,-0.0071,-0.0071,0,0.0018,0.0003,-0.001,-0.0014,-0.0023,-0.0029,-0.0033,-0.004,-0.0046,-0.0053,-0.0057,-0.0066,-0.0071,-0.0077,-0.008,-0.0075,-0.0094,-0.0089,-0.0097,-0.0097,-0.0102,-0.0101,-0.0122,-0.0103,-0.0103,-0.0103,-0.0103,0,-0.0,-0.0011,-0.0015,-0.0023,-0.0035,-0.0037,-0.0049,-0.0053,-0.0059,-0.0067,-0.0066,-0.0074,-0.0077,-0.0085,-0.0087,-0.0099,-0.0101,-0.0103,-0.0103,-0.0103,-0.0103,-0.0107,-0.0107,-0.0104,-0.0104,-0.0103,-0.0103,0,-0.0016,-0.0019,-0.0033,-0.004,-0.0042,-0.0051,-0.0057,-0.0064,-0.0067,-0.0077,-0.008,-0.0085,-0.0094,-0.0097,-0.0108,-0.011,-0.0123,-0.0123,-0.0121,-0.0122,-0.0129,-0.0129,-0.0154,-0.0158,-0.0136,-0.0136,-0.0136,0,-0.0028,-0.0036,-0.0044,-0.005,-0.0054,-0.0063,-0.0068,-0.007,-0.0076,-0.0084,-0.0091,-0.01,-0.0108,-0.0123,-0.0127,-0.0135,-0.0135,-0.0143,-0.0137,-0.0136,-0.0136,-0.0136,-0.0137,-0.0145,-0.0145,-0.0145,-0.0146,0,-0.0048,-0.0049,-0.0057,-0.0066,-0.0073,-0.008,-0.0086,-0.0091,-0.0093,-0.01,-0.011,-0.0115,-0.0127,-0.0136,-0.0144,-0.0148,-0.0148,-0.0147,-0.015,-0.0151,-0.015,-0.0151,-0.0126,-0.0147,-0.0147,-0.0147,-0.0147,-0.0147,-0.0063,-0.007,-0.0077,-0.0086,-0.0091,-0.0097,-0.0104,-0.0108,-0.0116,-0.0125,-0.0125,-0.0136,-0.0142,-0.0153,-0.0157,-0.0165,-0.0163,-0.0166,-0.0167,-0.0168,-0.0169,-0.0147,-0.0167,-0.0167,-0.0167,-0.0167,-0.0167,0,-0.0084,-0.0088,-0.0096,-0.0105,-0.0112,-0.011,-0.0117,-0.0123,-0.0132,-0.0138,-0.0145,-0.0156,-0.0165,-0.0169,-0.0178,-0.0183,-0.0183,-0.0185,-0.0186,-0.0186,-0.0171,-0.0168,-0.0185,-0.0185,-0.0185,-0.0185,-0.0185,-0.0185,-0.0096,-0.0108,-0.011,-0.0124,-0.0128,-0.0138,-0.0143,-0.0148,-0.0153,-0.0165,-0.0172,-0.0174,-0.0179,-0.0188,-0.0196,-0.0197,-0.02,-0.0203,-0.0204,-0.0189,-0.0188,-0.0186,-0.0183,-0.0204,-0.0204,-0.0219,-0.0219,-0.0219]},{"header":{"parameterUnit":"m.s-1","parameterCategory":1,"la1":30.2991,"la2":30.254,"lo1":-89.0895,"lo2":-89.0444,"dy":0.0017,"dx":0.0017,"nx":28,"ny":28,"refTime":"2024-12-20T03:00:00:Z","depth":0,"parameterNumber":3,"parameterNumberName":"V-component_of_WINDS"},"data":[0,0,0,0,0,0,0,0,0,0,0,0,0,0,0,0,0,0,0,0,0,0,0,0,0,0,0,0,0,0,0,0,0,0,0,0,0,0,0,0,0,0,0,0,0,0,0,0,0,0,0,0,0,0,0,0,0,0,-4.8553,-4.8554,0,-4.863,-4.863,-4.8631,-4.8625,-4.8624,-4.8622,-4.8621,-4.8694,-4.8697,-4.87,0,0,0,0,0,0,0,0,0,0,0,0,0,-4.8396,-4.8399,-4.8553,-4.8554,-4.8555,-4.8629,-4.863,-4.8632,-4.8625,-4.8624,-4.8622,-4.8621,-4.8693,-4.8697,-4.87,0,0,0,0,0,0,0,0,0,0,0,0,0,-4.8468,-4.84,-4.8553,-4.8561,-4.8562,-4.8629,-4.8631,-4.8632,-4.8625,-4.8624,-4.8622,-4.862,-4.8692,-4.8696,-4.8701,-4.8763,0,0,-4.8714,-4.8716,0,0,0,0,0,0,0,0,-4.8463,-4.8473,-4.8559,-4.856,-4.8562,-4.8616,-4.8602,-4.8676,-4.8626,-4.8601,-4.8621,-4.8619,-4.8669,-4.8675,-4.8693,-4.8766,-4.8769,-4.8715,-4.8718,-4.872,-4.8721,0,0,0,0,0,0,0,-4.8459,-4.847,-4.8583,-4.856,-4.8562,-4.8559,-4.8567,-4.8616,-4.8644,-4.8603,-4.8603,-4.8612,-4.867,-4.8689,-4.8695,-4.8771,-4.8715,-4.8719,-4.8722,-4.8723,-4.89,-4.8902,0,0,0,0,0,0,-4.8452,-4.8466,-4.8581,-4.8585,-4.8508,-4.8563,-4.8572,-4.86,-4.8643,-4.8648,-4.8614,-4.8612,-4.8682,-4.869,-4.8697,-4.8775,-4.872,-4.8724,-4.8726,-4.8898,-4.89,-4.8903,0,0,0,0,0,0,-4.8449,-4.8463,-4.8577,-4.8526,-4.854,-4.8568,-4.8599,-4.8603,-4.8622,-4.8651,-4.8656,-4.8629,-4.8681,-4.8691,-4.8748,-4.8777,-4.8726,-4.873,-4.8896,-4.8899,-4.8901,-4.8928,0,0,0,0,0,0,-4.8445,-4.8462,-4.8487,-4.8526,-4.8543,-4.8628,-4.8601,-4.8605,-4.8631,-4.8629,-4.8666,-4.8671,-4.8681,-4.8741,-4.8752,-4.8782,-4.8733,-4.8893,-4.8897,-4.89,-4.8925,-4.8932,-4.8938,0,0,0,0,0,-4.8439,-4.8489,-4.8488,-4.8502,-4.8575,-4.8629,-4.8639,-4.865,-4.8633,-4.8658,-4.8677,-4.867,-4.8772,-4.8747,-4.8759,-4.8791,-4.8891,-4.8896,-4.89,-4.8922,-4.8931,-4.8938,0,0,0,0,0,0,-4.845,-4.8495,-4.8493,-4.8559,-4.8591,-4.8628,-4.866,-4.8659,-4.8695,-4.8691,-4.8702,-4.8711,-4.8768,-4.8785,-4.8756,-4.8854,-4.8829,-4.8836,-4.8841,-4.885,-4.8856,-4.8851,-4.8737,0,0,0,0,0,-4.846,-4.8503,-4.8539,-4.8592,-4.8609,-4.8632,-4.8656,-4.8662,-4.8695,-4.8708,-4.8731,-4.8761,-4.8801,-4.8826,-4.8863,-4.8927,-4.8936,-4.8955,-4.8962,-4.8967,-4.8973,-4.901,-4.9019,-4.8917,-4.8917,-4.8917,0,0,-4.8481,-4.8511,-4.8537,-4.8596,-4.8621,-4.8664,-4.8643,-4.8688,-4.872,-4.8714,-4.877,-4.8788,-4.8822,-4.8884,-4.8911,-4.8899,-4.9003,-4.8973,-4.8977,-4.898,-4.9015,-4.9025,-4.9033,-4.892,-4.892,-4.8919,0,0,-4.8542,-4.8568,-4.8617,-4.8644,-4.8684,-4.8699,-4.8711,-4.8749,-4.8762,-4.8818,-4.8816,-4.8852,-4.8919,-4.8944,-4.8966,-4.9038,-4.9033,-4.9049,-4.9083,-4.9119,-4.9127,-4.9134,-4.9161,-4.917,-4.9055,-4.9056,-4.9056,0,-4.8562,-4.8628,-4.8642,-4.8689,-4.8715,-4.8714,-4.8763,-4.8788,-4.8837,-4.8854,-4.8841,-4.8926,-4.8949,-4.9017,-4.9035,-4.9052,-4.9065,-4.9046,-4.9125,-4.9132,-4.9139,-4.9165,-4.9174,-4.9057,-4.9057,-4.9057,-4.9057,0,-4.8652,-4.8698,-4.8732,-4.8783,-4.8812,-4.886,-4.888,-4.8908,-4.8912,-4.8928,-4.8986,-4.9014,-4.9058,-4.9074,-4.9077,-4.9143,-4.9134,-4.9123,-4.9097,-4.915,-4.9175,-4.9184,-4.906,-4.9059,-4.9059,-4.9058,0,0,-4.8721,-4.878,-4.8793,-4.8817,-4.8861,-4.8896,-4.8943,-4.8989,-4.9013,-4.9047,-4.9087,-4.9144,-4.9135,-4.9159,-4.9165,-4.9196,-4.9253,-4.9181,-4.9182,-4.9194,-4.9328,-4.9337,-4.9348,-4.925,-4.9252,-4.9253,-4.9325,0,-4.8787,-4.8874,-4.8888,-4.8963,-4.9006,-4.9007,-4.9048,-4.9079,-4.9096,-4.9133,-4.915,-4.9192,-4.9175,-4.919,-4.9221,-4.924,-4.928,-4.9234,-4.9287,-4.9288,-4.9279,-4.9361,-4.9371,-4.9437,-4.9335,-4.9336,-4.9337,0,-4.8875,-4.8915,-4.8996,-4.9037,-4.9055,-4.9092,-4.9136,-4.9172,-4.9207,-4.9217,-4.9245,-4.9248,-4.9296,-4.9269,-4.9335,-4.9304,-4.9326,-4.9339,-4.9342,-4.9347,-4.9317,-4.937,-4.9459,-4.9469,-4.9352,-4.9351,-4.935,0,-4.8919,-4.8992,-4.9051,-4.9071,-4.9119,-4.9146,-4.9167,-4.9201,-4.9228,-4.9265,-4.9282,-4.9323,-4.9346,-4.9378,-4.9391,-4.937,-4.9457,-4.9431,-4.9466,-4.9466,-4.9485,-4.9484,-4.958,-4.9498,-4.9498,-4.9497,-4.9497,0,-4.8992,-4.9041,-4.9072,-4.9107,-4.9163,-4.9178,-4.9232,-4.9252,-4.9282,-4.9321,-4.9323,-4.9359,-4.9374,-4.9412,-4.9423,-4.9477,-4.9487,-4.9496,-4.9498,-4.9496,-4.9495,-4.9511,-4.9507,-4.95,-4.95,-4.9499,-4.9499,0,-4.9051,-4.9073,-4.9137,-4.9178,-4.919,-4.9229,-4.9264,-4.9298,-4.9315,-4.9365,-4.9377,-4.9403,-4.9448,-4.9465,-4.9518,-4.9526,-4.9589,-4.9587,-4.9578,-4.9579,-4.9614,-4.9611,-4.9724,-4.974,-4.9647,-4.9647,-4.9648,0,-4.9096,-4.9135,-4.9182,-4.921,-4.9233,-4.9276,-4.9305,-4.9321,-4.935,-4.9394,-4.9423,-4.9469,-4.9506,-4.9578,-4.96,-4.9642,-4.9642,-4.9678,-4.9648,-4.9645,-4.9643,-4.9642,-4.9646,-4.9684,-4.9685,-4.9686,-4.9687,0,-4.9175,-4.9185,-4.9227,-4.9273,-4.9308,-4.9344,-4.938,-4.9402,-4.9423,-4.9455,-4.9503,-4.9533,-4.9589,-4.9635,-4.9678,-4.9697,-4.9696,-4.9696,-4.9707,-4.9706,-4.97,-4.9705,-4.9595,-4.9694,-4.9693,-4.9692,-4.9692,-4.9692,-4.9229,-4.9265,-4.9304,-4.9351,-4.938,-4.9414,-4.9449,-4.9471,-4.9512,-4.9562,-4.9568,-4.9619,-4.9654,-4.9712,-4.9734,-4.9774,-4.9763,-4.9778,-4.9783,-4.9786,-4.979,-4.9693,-4.9781,-4.9781,-4.9781,-4.9781,-4.978,0,-4.931,-4.9336,-4.9379,-4.943,-4.9467,-4.9465,-4.9504,-4.9535,-4.9581,-4.9614,-4.9652,-4.9707,-4.9752,-4.9778,-4.9823,-4.9849,-4.9849,-4.986,-4.9859,-4.9864,-4.9796,-4.9783,-4.9859,-4.9859,-4.9859,-4.9859,-4.9859,-4.9859,-4.9356,-4.9416,-4.943,-4.9505,-4.953,-4.9582,-4.9605,-4.9636,-4.9663,-4.9726,-4.9764,-4.9782,-4.9812,-4.9859,-4.9899,-4.9906,-4.9922,-4.9934,-4.994,-4.9876,-4.9868,-4.986,-4.9848,-4.9938,-4.9938,-5.0005,-5.0006,-5.0006]}]]